Location: Newark
(44.6028°N, 124.0883°W)
Time: 13:00:04
(UTC+00:00)

A-11 Canister half - Pass Details

Date: 23 October 2019
Orbit: 1514 x 1685 km, 47.2° (Epoch: 20 November)

Event Time Altitude Azimuth Distance (km) Brightness Sun altitude
Exits shadow 08:45:03 13° 74° (ENE) 3,562 11.0 -55.4°
Drops below altitude 10° 08:46:00 10° 72° (ENE) 3,831 11.3 -55.4°
Sets 08:49:14 0° 66° (ENE) 4,795 11.9 -55.2°
